Location: Volkssternwarte_EN
(51.3230°N, 7.4010°E)
Time: 03:56:50
(UTC+02:00)

Envisat - Visible Passes

Search period start: 18 July 2024 00:00
Search period end: 28 July 2024 00:00
Orbit: 762 x 764 km, 98.3° (Epoch: 17 July)

Date Brightness Start Highest point End Pass type
(mag) Time Alt. Az. Time Alt. Az. Time Alt. Az.
18 Jul 5.5 03:20:38 10° NE 03:23:13 14° E 03:25:47 10° ESE visible
19 Jul 4.1 04:20:38 10° NNE 04:25:28 42° E 04:30:16 10° S visible
20 Jul 5.1 03:43:51 10° NE 03:47:45 22° E 03:51:38 10° SE visible
21 Jul 5.7 03:08:48 10° ENE 03:09:49 11° E 03:10:49 10° E visible
21 Jul 3.4 04:44:41 10° NNE 04:49:46 67° ESE 04:54:49 10° S visible
22 Jul 4.5 04:07:35 10° NNE 04:12:11 33° E 04:16:45 10° SSE visible
23 Jul 5.4 03:31:05 10° NE 03:34:23 17° E 03:37:41 10° SE visible
24 Jul 3.7 04:31:33 10° NNE 04:36:31 52° E 04:41:28 10° S visible
25 Jul 4.8 03:54:35 10° NE 03:58:52 27° E 04:03:07 10° SSE visible
26 Jul 5.5 03:18:32 10° NE 03:21:00 13° E 03:23:26 10° ESE visible
26 Jul 3.1 04:55:40 10° NNE 05:00:47 82° ESE 05:05:52 10° SSW visible
27 Jul 4.1 04:18:26 10° NNE 04:23:15 41° E 04:28:02 10° SSE visible
